Regional Weather Roundup
Issued by NWS

Home | Current Version | Previous Version | Graphics & Text | Print | Product List | Glossary On
Versions: 1 2 3 4 5 6 7 8 9 10 11 12 13 14 15 16 17 18 19 20 21 22 23 24 25 26 27 28 29 30 31 32 33 34 35 36 37 38 39 40 41 42 43 44 45 46 47 48 49 50
000
ASUS43 KLOT 250203
RWRIL

ILLINOIS REGIONAL WEATHER ROUNDUP
NATIONAL WEATHER SERVICE CHICAGO/ROMEOVILLE IL
900 PM CDT SUN JUL 24 2016

NOTE: "FAIR" INDICATES FEW OR NO CLOUDS BELOW 12,000 FEET WITH NO
SIGNIFICANT WEATHER AND/OR OBSTRUCTIONS TO VISIBILITY.

* THESE STATIONS ARE NOT UNDER NWS QUALITY CONTROL. THEY ALSO MAY NOT
  REPORT WEATHER SUCH AS PRECIPITATION OR FOG.

ILZ001-002-007-009-015-016-024-250300-
NORTHWEST ILLINOIS

CITY           SKY/WX    TMP DP  RH WIND       PRES   REMARKS
MOLINE         MOCLDY    83  67  58 NW9       29.91S HX  85
STERLING*      CLOUDY    83  74  74 N8        29.90R HX  89
SAVANNA*       CLEAR     79  67  66 N6        29.91R HX  81
$$

ILZ003-004-008-010-011-017-018-250300-
NORTH CENTRAL ILLINOIS

CITY           SKY/WX    TMP DP  RH WIND       PRES   REMARKS
ROCKFORD       MOCLDY    85  73  67 NW17      29.91R HX  91
FREEPORT*      CLOUDY    78  68  71 NW8G17    29.93R HX  80
ROCHELLE*      CLOUDY    83  78  85 NW12G21   29.91R HX  94
$$

ILZ005-006-012>014-019>023-250300-
NORTHEAST ILLINOIS

CITY           SKY/WX    TMP DP  RH WIND       PRES   REMARKS
CHICAGO-OHARE  CLOUDY    75  72  90 S7        29.88R
CHICAGO-MIDWAY CLOUDY    76  68  76 W6        29.88F
AURORA         CLOUDY    77  70  79 W5        29.89S
LANSING*       TSTM      72  64  77 S6        29.89F
WAUKEGAN       CLOUDY    81  70  69 SW14      29.87R THUNDER HX  84
DUPAGE AIRPORT CLOUDY    80  68  66 SW6       29.88F HX  83
WHEELING       CLOUDY    77  70  79 SW7       29.88F
MORRIS*        CLOUDY    74  70  88 S5        29.89S
NORTHERLY ISL    N/A     77  63  61 SW5         N/A
$$

LMZ740>746-250300-
SOUTHERN LAKE MICHIGAN

STATION/POSITION SKY/WX   TEMP    WIND        PRES    VSBY  WAVE
                          AIR SEA DIR/SP/G                  HT/PER
                          (F)     (DEG/KT/KT) (MB)    (MI)  (FT/S)
SOUTHERN BUOY              76 72  180/ 10/ 12 1009.4          2/ 4
WILMETTE HARBOR            70 63  240/ 10/ 14   N/A           2/ 2
HARRISON CRIB              76     200/ 24/ 25   N/A
BURNHAM HARBOR             77     250/  5/ 17   N/A
CALUMET HARBOR             71     160/  8/ 16   N/A
BURNS HARBOR               73     220/ 20     1012.9S
MICHIGAN CITY              74     210/ 26/ 29   N/A
MICHIGAN CITY 6N           75 74  260/ 23/ 33   N/A           2/ 3
ST. JOSEPH                 80 74  190/ 10/ 12 1010.5R         2/ 3
$$

ILZ025>027-034>036-040-047-049-050-058-095>099-250300-
WEST-CENTRAL ILLINOIS

CITY           SKY/WX    TMP DP  RH WIND       PRES   REMARKS
QUINCY         PTCLDY    83  70  64 NW14      29.93R HX  87
GALESBURG*     CLOUDY    82  79  90 NW7       29.91S HX  92
MACOMB*        MOCLDY    82  79  90 W9        29.95R THUNDER HX  92
JACKSONVILLE*  PTCLDY    84  81  90 W6        29.91R THUNDER HX  98
PITTSFIELD*    CLEAR     85  81  88 NW5       29.94R HX 101
$$

ILZ028>032-037-038-041>044-048-051>054-059>061-250300-
CENTRAL ILLINOIS

CITY           SKY/WX    TMP DP  RH WIND       PRES   REMARKS
BLOOMINGTON    CLOUDY    79  71  76 N18       29.92R THUNDER HX  82
DECATUR        CLEAR     86  78  77 S8        29.92S HX  98
PEORIA         CLOUDY    86  82  88 NW5       29.88F HX 104
LACON*         CLOUDY    80  76  87 E5        29.87F HX  84
LINCOLN*       CLOUDY    87  83  89 S7        29.88F HX 108
SPRINGFIELD    CLOUDY    88  80  77 S12       29.89F HX 104
TAYLORVILLE    NOT AVBL
$$

ILZ033-039-045-046-055>057-062-063-250300-
EAST-CENTRAL ILLINOIS

CITY           SKY/WX    TMP DP  RH WIND       PRES   REMARKS
CHAMPAIGN      CLEAR     80  77  90 S5        29.94R HX  87
MATTOON        CLEAR     84  77  79 MISG      29.93R HX  94
$$

ILZ079-100>102-250300-
SOUTHWEST ILLINOIS

CITY           SKY/WX    TMP DP  RH WIND       PRES   REMARKS
BELLEVILLE     PTCLDY    85  81  90 CALM      29.92R HX 100
CAHOKIA*       PTCLDY    88  78  72 S6        29.92R HX 101
SPARTA*        CLEAR     85  77  78 S6        29.96R HX  95
$$

ILZ064>066-069>071-074>076-080>082-084>086-088>090-092>094-250300-
SOUTH-CENTRAL ILLINOIS

CITY           SKY/WX    TMP DP  RH WIND       PRES   REMARKS
CARBONDALE     CLEAR     82  75  79 S5        29.95S HX  89
EFFINGHAM*     CLEAR     84  78  83 SE5       29.96R HX  96
MARION         CLEAR     84  77  79 S3        29.97R HX  94
MT. VERNON     CLEAR     84  72  65 CALM      29.95S HX  89
CENTRALIA*     CLEAR     83  78  86 S6        29.94R HX  92
SALEM*         CLEAR     84  76  77 S3        29.94R HX  93
METROPOLIS*    CLEAR     81  78  92 CALM      29.97R HX  89
$$

ILZ067-068-072-073-078-083-087-091-250300-
SOUTHEAST ILLINOIS

CITY           SKY/WX    TMP DP  RH WIND       PRES   REMARKS
LAWRENCEVILLE  CLEAR     82  79  90 S6        29.95R HX  92
FLORA*         CLEAR     83  79  86 S6        29.95R HX  94
FAIRFIELD*     CLEAR     82  77  84 CALM      29.94S HX  91
HARRISBURG*    CLEAR     82  80  92 CALM      29.96R HX  93
ROBINSON*      CLEAR     80  77  91 S6        29.94S HX  85
CARMI*         CLEAR     81  80  95 S3        29.95R HX  91
$$

ABBREVIATIONS USED IN REMARKS
   TC - TEMPERATURE IN CELSIUS
  WCI - WIND CHILL INDEX
   HX - HEAT INDEX
  VSB - VISIBILITY
$$




USA.gov is the U.S. government's official web portal to all federal, state and local government web resources and services.